Cotulla, TX

5:51 PM CST on November 22, 2019 (GMT -0600)
Cotulla-La Salle County

Weather History for KCOT - August, 2019

Change the Weather History Date:

Friday, August 23, 2019

  Actual Average Record
Temperature  
Mean Temperature 90 °F -  
Max Temperature 104 °F 94 °F 105 °F (2010)
Min Temperature 78 °F 73 °F 71 °F (2004)
Cooling Degree Days 25    
Growing Degree Days 40 (Base 50)    
Moisture  
Dew Point 69 °F    
Average Humidity 56    
Maximum Humidity 90    
Minimum Humidity 26    
Precipitation  
Precipitation 0.00 in - - ()
Sea Level Pressure  
Sea Level Pressure 29.82 in    
Wind  
Wind Speed 8 mph ()    
Max Wind Speed 25 mph    
Max Gust Speed 33 mph    
Visibility 10.0 miles    
Events      
Averages and records for this station are not official NWS values.
T = Trace of Precipitation, MM = Missing Value Source: Averaged Metar Reports

Daily Weather History Graph

Daily Weather History Graph

Search for Another Location

Airport or City:

Astronomy

Aug. 23, 2019 Rise Set
Actual Time 7:10 AM CDT 8:08 PM CDT
Civil Twilight 6:46 AM CDT 8:32 PM CDT
Nautical Twilight 6:17 AM CDT 9:01 PM CDT
Astronomical Twilight 5:47 AM CDT 9:30 PM CDT
Moon 12:34 AM CDT (8/23) 2:12 PM CDT (8/23)
Length of Visible Light 13h 46m
Length of Day
12h 57m
Waning Gibbous, 49% of the Moon is Illuminated
Aug 23
Waning Gibbous
Aug 30
New
Sep 5
First Quarter
Sep 13
Full
Sep 21
Last Quarter

Hourly Weather History & Observations

Time (CDT) Temp. Heat Index Dew Point Humidity Pressure Visibility Wind Dir Wind Speed Gust Speed Precip Events Conditions
12:53 AM 82.9 °F 88.0 °F 72.0 °F 69% 29.87 in 10.0 mi SE 11.5 mph - N/A   Clear
1:53 AM 82.0 °F 86.7 °F 72.0 °F 71% 29.87 in 10.0 mi SE 9.2 mph - N/A   Clear
2:53 AM 81.0 °F 85.8 °F 73.0 °F 77% 29.86 in 10.0 mi SE 6.9 mph - N/A   Clear
3:53 AM 80.1 °F 84.5 °F 73.9 °F 81% 29.85 in 10.0 mi SE 8.1 mph - N/A   Clear
4:53 AM 79.0 °F - 73.0 °F 82% 29.85 in 10.0 mi ESE 6.9 mph - N/A   Clear
5:53 AM 78.1 °F - 73.0 °F 84% 29.86 in 10.0 mi ESE 6.9 mph - N/A   Clear
6:53 AM 78.1 °F - 75.0 °F 90% 29.87 in 10.0 mi East 5.8 mph - N/A   Clear
7:53 AM 78.1 °F - 75.0 °F 90% 29.88 in 10.0 mi East 6.9 mph - N/A   Clear
8:53 AM 82.0 °F 88.6 °F 75.0 °F 79% 29.88 in 10.0 mi ESE 6.9 mph - N/A   Clear
9:53 AM 86.0 °F 93.8 °F 73.9 °F 67% 29.87 in 10.0 mi Variable 3.5 mph - N/A   Partly Cloudy
10:53 AM 89.1 °F 95.0 °F 71.1 °F 55% 29.87 in 10.0 mi SSE 6.9 mph - N/A   Clear
11:53 AM 91.9 °F 95.4 °F 66.9 °F 44% 29.85 in 10.0 mi Variable 5.8 mph - N/A   Clear
12:53 PM 97.0 °F 99.9 °F 64.9 °F 35% 29.83 in 10.0 mi Calm Calm - N/A   Clear
1:53 PM 99.0 °F 100.5 °F 62.1 °F 30% 29.81 in 10.0 mi Calm Calm - N/A   Clear
2:53 PM 99.0 °F 100.5 °F 63.0 °F 30% 29.80 in 10.0 mi Variable 3.5 mph - N/A   Partly Cloudy
3:53 PM 100.0 °F 101.8 °F 63.0 °F 29% 29.76 in 10.0 mi East 5.8 mph 18.4 mph N/A   Scattered Clouds
4:53 PM 102.9 °F 104.8 °F 62.1 °F 26% 29.74 in 10.0 mi SE 13.8 mph 21.9 mph N/A   Partly Cloudy
5:53 PM 102.0 °F 103.9 °F 62.1 °F 27% 29.73 in 10.0 mi SE 12.7 mph - N/A   Partly Cloudy
6:53 PM 100.0 °F 101.8 °F 63.0 °F 29% 29.73 in 10.0 mi SE 13.8 mph - N/A   Partly Cloudy
7:28 PM 99.0 °F 100.5 °F 63.0 °F 30% 29.77 in 10.0 mi ESE 9.2 mph - N/A   Partly Cloudy
7:53 PM 95.0 °F 100.7 °F 69.1 °F 43% 29.76 in 10.0 mi SE 25.3 mph 33.4 mph N/A   Mostly Cloudy
8:53 PM 91.9 °F 96.9 °F 69.1 °F 47% 29.77 in 10.0 mi SE 17.3 mph 26.5 mph N/A   Clear
9:53 PM 89.1 °F 94.1 °F 70.0 °F 53% 29.81 in 10.0 mi SSE 12.7 mph - N/A   Clear
10:53 PM 87.1 °F 93.6 °F 72.0 °F 61% 29.85 in 10.0 mi SE 12.7 mph 20.7 mph N/A   Clear
11:53 PM 84.9 °F 91.4 °F 73.0 °F 67% 29.85 in 10.0 mi SSE 12.7 mph - N/A   Clear